Regional Weather Roundup
Issued by NWS

Home | Current Version | Previous Version | Text Only | Print | Product List | Glossary On
Versions: 1 2 3 4 5 6 7 8 9 10 11 12 13 14 15 16 17 18 19 20 21 22 23 24 25 26 27 28 29 30 31 32 33 34 35 36 37 38 39 40 41 42 43 44 45 46 47 48 49 50
000
ASUS43 KMKX 222321
RWRWI

WISCONSIN REGIONAL WEATHER ROUNDUP
NATIONAL WEATHER SERVICE MILWAUKEE/SULLIVAN WI
600 PM CDT TUE AUG 22 2017

NOTE: "FAIR" INDICATES FEW OR NO CLOUDS BELOW 12,000 FEET WITH NO
SIGNIFICANT WEATHER AND/OR OBSTRUCTIONS TO VISIBILITY.

WIZ001-002-006>008-014>016-023>028-230000-
NORTHWEST WISCONSIN

CITY           SKY/WX    TMP DP  RH WIND       PRES   REMARKS
SUPERIOR ARPT    N/A     67  54  64 W9        29.96S
ASHLAND        PTSUNNY   66  53  63 W14G21    29.93S
HAYWARD        CLOUDY    65  50  58 CALM      29.98R
SIREN          MOSUNNY   71  46  41 W12G20    30.00S
CUMBERLAND     MOSUNNY   68  45  42 NW13G22   30.00S
RICE LAKE      MOSUNNY   70  47  43 W12G18    30.01S
CHETEK         PTSUNNY   71  49  46 NW7       29.99S
LADYSMITH      PTSUNNY   68  50  52 W12G21    30.00R
EAU CLAIRE     SUNNY     72  46  39 NW12G21   29.99R
MENOMONIE      SUNNY     72  45  37 W16G23    30.01R
NEW RICHMOND   MOSUNNY   69  46  43 NW12      30.02S
OSCEOLA        SUNNY     71  45  39 NW9       30.04S
$$

WIZ003>005-009-010-017-018-230000-
NORTH CENTRAL WISCONSIN

CITY           SKY/WX    TMP DP  RH WIND       PRES   REMARKS
MANITOWISH WTR PTSUNNY   63  51  64 NW13G21   29.93S
ARBOR VITAE    CLOUDY    64  51  62 NW9G17    29.93S
WOODRUFF       CLOUDY    64  51  62 NW9G17    29.93S
RHINELANDER    CLOUDY    64  50  60 W14G23    29.94R
EAGLE RIVER    PTSUNNY   61  51  68 NW9       29.92R
LAND O LAKES   CLOUDY    58  53  82 W6        29.93R
PHILLIPS       CLOUDY    64  51  60 W9        29.96S
TOMAHAWK         N/A     65  47  53 NW15G21   29.96R
MEDFORD        MOSUNNY   67  47  48 NW14G25   29.97R
MERRILL        PTSUNNY   70  48  46 NW16G29   29.95R
$$

WIZ029-030-035-036-043>047-230000-
CENTRAL WISCONSIN

CITY           SKY/WX    TMP DP  RH WIND       PRES   REMARKS
WAUSAU         MOSUNNY   69  46  43 NW16G30   29.93R
MOSINEE        MOSUNNY   70  48  46 NW14G20   29.96R
MARSHFIELD     MOSUNNY   70  47  43 NW17G24   29.96R
STEVENS POINT  PTSUNNY   69  48  47 NW13G18   29.95S
WAUPACA        MOSUNNY   74  46  36 W15G25    29.93S
WAUTOMA        PTSUNNY   74  49  41 NW14G23   29.95S
WISC RAPIDS    MOSUNNY   73  50  44 NW12G26   29.97R
CAMP DOUGLAS   MOSUNNY   72  50  46 W12G22    29.98R
$$

WIZ011>013-019>022-031-037>040-048>050-230000-
NORTHEAST WISCONSIN

CITY           SKY/WX    TMP DP  RH WIND       PRES   REMARKS
ANTIGO         MOSUNNY   64  48  57 NW12G21   29.94R
SHAWANO        CLOUDY    72  48  42 NW10      29.90S
OCONTO         PTSUNNY   70  48  45 NW9G23    29.88R
STURGEON BAY   MOSUNNY   69  52  54 NW13      29.88R
GREEN BAY      PTSUNNY   70  52  52 W8        29.89S
MANITOWOC      SUNNY     72  48  42 NW14G20   29.90R
APPLETON       PTSUNNY   72  43  35 W15G26    29.90F
CLINTONVILLE   CLOUDY    70  45  40 NW8G17    29.91S
OSHKOSH        MOSUNNY   72  49  44 NW12      29.92S
$$

WIZ032>034-041-042-053>061-230000-
SOUTHWEST WISCONSIN

CITY           SKY/WX    TMP DP  RH WIND       PRES   REMARKS
LA CROSSE      MOSUNNY   77  48  36 W15       30.00R
SPARTA         SUNNY     72  49  43 NW12      30.00S
VIROQUA        MOSUNNY   70  49  48 NW12G17   30.02S
BOSCOBEL       MOSUNNY   76  48  37 NW13      30.01S
PRAIRIE DU CHI SUNNY     74  43  33 NW12G18   30.02R
PLATTEVILLE    SUNNY     71  53  53 NW10      30.02S
$$

WIZ056-057-062-063-064-067-068-230000-
SOUTH CENTRAL WISCONSIN

CITY           SKY/WX    TMP DP  RH WIND       PRES   REMARKS
REEDSBURG      SUNNY     71  49  44 NW13G18   29.98S
BARABOO/DELLS  SUNNY     73  46  38 NW9       29.98S
LONE ROCK      MOSUNNY   71  51  49 NW13      29.99S
MINERAL POINT  MOSUNNY   72  48  43 NW8       30.02S
MADISON        MOSUNNY   72  49  44 NW10      29.98R
MIDDLETON      MOSUNNY   73  49  43 NW9       30.00R
WATERTOWN      SUNNY     71  51  49 NW10      29.96R
MONROE         MOSUNNY   72  46  40 NW12      29.99S
JANESVILLE     MOSUNNY   75  50  41 NW12G17   29.96R
$$

WIZ051-052-058>065-066-070>072-230000-
SOUTHEAST WISCONSIN

CITY           SKY/WX    TMP DP  RH WIND       PRES   REMARKS
MILWAUKEE      MOSUNNY   75  49  39 NW13      29.93R
WAUKESHA       MOSUNNY   70  48  46 NW17G23   29.96R
MILWAUKEE/TIMM MOSUNNY   72  45  37 NW14G21   29.95R
RACINE         MOSUNNY   75  50  41 NW16      29.94R
KENOSHA        SUNNY     75  49  39 NW14G22   29.94R
FOND DU LAC    SUNNY     73  48  41 NW10      29.93S
SHEBOYGAN      PTSUNNY   73  52  47 NW14      29.91S
WEST BEND      MOSUNNY   72  45  37 NW15G24   29.94S
JUNEAU         MOSUNNY   70  50  47 W8        29.96S
$$

LSZ147-162-230000-
LAKE SUPERIOR

STATION/POSITION TIME  TEMP    WIND        PRES    WAVE
                       AIR SEA DIR/SP/G            HT/PER
                 (UTC) (F)     (DEG/KT/KT) (MB)    (FT/S)
W MID LAKE BUOY  2250   61 59  280/ 14/ 14 1010.8R   3/ 4
DEVILS ISLAND    2300   61     280/ 17/ 20 1013.1R
PORT WING        2137   72     270/ 19/ 26 1013.5
SAXON HARBOR     2230   68     280/  8/ 14 1012.9R
$$

LMZ867-665-643>646-230000-
LAKE MICHIGAN

STATION/POSITION TIME  TEMP    WIND        PRES    WAVE
                       AIR SEA DIR/SP/G            HT/PER
                 (UTC) (F)     (DEG/KT/KT) (MB)    (FT/S)
S GREEN BAY BUOY 2230   72 71  300/ 14/ 17 1011.5R
N MID LAKE BUOY  2250   68 67  290/ 17/ 21 1010.2R   3/ 5
NORTHPORT PIER   2240   71     310/ 10/ 16 1010.5R
KEWAUNEE LAKESHO 2254   73     300/ 10/ 14 1010.9R
SHEBOYGAN LAKESH 2300   72     300/ 11/ 14 1012.4R
PORT WASHINGTON  2240   76     310/  6/ 13 1013.9R
ATWATER BUOY     2209   73 68  320/ 16/ 21 1013.2R
MILWAUKEE LAKESH 2300   74     300/ 14/ 21   N/A
S MID LAKE BUOY  2250   72 71  350/ 14/ 16 1012.6R   3/ 5
KENOSHA   LAKESH 2300   75     310/ 15/ 22 1012.9
$$

TC  - TEMPERATURE IN CELSIUS
VSB - VISIBILITY IN STATUTE MILES
WCI - WIND CHILL INDEX
HX  - HEAT INDEX





USA.gov is the U.S. government's official web portal to all federal, state and local government web resources and services.